Location: Wanzleben
(52.0609°N, 11.4408°E)
Time: 03:39:48
(UTC+00:00)

Cosmos 2026 Rocket - Pass Details

Date: 18 September 2020
Orbit: 940 x 1000 km, 82.9° (Epoch: 22 October)

Event Time Altitude Azimuth Distance (km) Brightness Sun altitude
Rises 19:54:58 0° 348° (NNW) 3,713 7.8 -22.9°
Reaches altitude 10° 19:57:29 10° 347° (NNW) 2,767 7.0 -23.2°
Maximum altitude 20:03:50 76° 264° (W) 1,032 4.1 -24.0°
Enters shadow 20:06:55 33° 184° (S) 1,620 4.8 -24.4°
